[[{"header":{"parameterUnit":"m.s-1","parameterCategory":1,"la1":30.2992,"la2":30.254,"lo1":-89.0895,"lo2":-89.0443,"dy":0.0025,"dx":0.0025,"nx":19,"ny":19,"refTime":"2026-05-12T03:00:00:Z","depth":0,"parameterNumber":2,"parameterNumberName":"U-component_of_WINDS"},"data":[0,0,0,-1.9466,-1.947,-1.9631,-1.9632,-1.9852,-1.9854,0,0,0,0,0,0,0,0,0,0,0,-1.9425,-1.9427,-1.9466,-1.947,-1.9631,-1.9632,-1.9852,-1.9854,0,0,0,0,0,0,0,0,0,0,0,-1.9424,-1.9426,-1.9428,-1.9471,-1.9631,-1.9632,-1.9851,-1.9725,0,0,0,0,0,0,0,0,0,0,-1.9566,-1.9534,-1.9426,-1.9428,-1.9472,-1.9631,-1.9632,-1.9719,-1.9733,-1.9784,0,-1.983,0,-1.9845,-1.9869,-1.987,0,0,0,-1.9466,-1.9523,-1.9559,-1.9429,-1.9473,-1.9631,-1.9557,-1.9726,-1.9742,-1.9803,-1.9833,-1.984,-1.9849,-1.9871,-1.9872,-2.0175,-2.0176,0,0,-1.9457,-1.9459,-1.9548,-1.957,-1.9544,-1.9552,-1.9562,-1.9736,-1.977,-1.9833,-1.9845,-1.9852,-1.9872,-1.9874,-2.0173,-2.0175,0,0,0,-1.9434,-1.9453,-1.9485,-1.9561,-1.9589,-1.9557,-1.9569,-1.9762,-1.9772,-1.9848,-1.9855,-1.9874,-1.9877,-2.0171,-2.0174,-2.0255,0,0,0,-1.9429,-1.9439,-1.9481,-1.9484,-1.9586,-1.9677,-1.9591,-1.976,-1.978,-1.9854,-1.9874,-1.9879,-2.017,-2.0173,-2.0249,-2.0295,0,0,0,-1.9412,-1.9437,-1.9462,-1.9484,-1.9552,-1.9674,-1.9694,-1.9764,-1.9784,-1.987,-1.9879,-2.0168,-2.0172,-2.0244,-2.0286,-2.0376,0,0,0,-1.9396,-1.9534,-1.9464,-1.962,-1.9551,-1.9721,-1.9693,-1.9821,-1.9904,-1.9875,-2.017,-2.0174,-2.0242,-2.0281,-2.037,-2.0454,-2.0488,0,0,-1.9572,-1.9556,-1.9647,-1.9589,-1.9772,-1.9697,-1.9892,-1.9969,-1.9977,-2.0109,-2.0116,-2.0251,-2.0286,-2.0375,-2.0672,-2.0699,0,0,0,-1.9704,-1.977,-1.9818,-1.9895,-1.9954,-2.0008,-2.0053,-2.0081,-2.0192,-2.0044,-2.0306,-2.0326,-2.0379,-2.0419,-2.0442,-2.0487,-2.0191,-2.0191,-2.019,-1.9959,-1.9957,-2.0109,-2.0126,-2.0201,-2.0243,-2.0305,-2.035,-2.033,-2.0391,-2.0432,-2.0612,-2.0659,-2.0676,-2.0723,-2.0473,-2.0473,-2.0473,-2.0473,-2.0218,-2.0312,-2.0276,-2.041,-2.0408,-2.0522,-2.0567,-2.0547,-2.0654,-2.0582,-2.0628,-2.0553,-2.0706,-2.0747,-2.048,-2.0479,-2.0478,-2.0477,-2.0477,-2.0388,-2.0433,-2.046,-2.0569,-2.0654,-2.0666,-2.0768,-2.0762,-2.0758,-2.0803,-2.0846,-2.0845,-2.0845,-2.0823,-2.0823,-2.0824,-2.0825,-2.0825,-2.0825,-2.0555,-2.0583,-2.0669,-2.0739,-2.0786,-2.0847,-2.0887,-2.0934,-2.0985,-2.0973,-2.0974,-2.0948,-2.0719,-2.0663,-2.0835,-2.0834,-2.0832,-2.0831,-2.0831,-2.0826,-2.0762,-2.0896,-2.0942,-2.1022,-2.1106,-2.1094,-2.1189,-2.1227,-2.1278,-2.1239,-2.1069,-2.1055,-2.1036,-2.0991,-2.1237,-2.1237,-2.1237,-2.1237,-2.0972,-2.0961,-2.1095,-2.1169,-2.1242,-2.1243,-2.1394,-2.1425,-2.1448,-2.1471,-2.1433,-2.137,-2.1351,-2.1348,-2.1322,-2.128,-2.1595,-2.1595,-2.1595,-2.114,-2.1134,-2.1265,-2.1282,-2.1343,-2.1395,-2.1537,-2.1626,-2.1638,-2.161,-2.1489,-2.1474,-2.1373,-2.1339,-2.1315,-2.1276,-2.1198,0,0]},{"header":{"parameterUnit":"m.s-1","parameterCategory":1,"la1":30.2992,"la2":30.254,"lo1":-89.0895,"lo2":-89.0443,"dy":0.0025,"dx":0.0025,"nx":19,"ny":19,"refTime":"2026-05-12T03:00:00:Z","depth":0,"parameterNumber":3,"parameterNumberName":"V-component_of_WINDS"},"data":[0,0,0,-4.565,-4.5653,-4.5771,-4.5772,-4.5949,-4.595,0,0,0,0,0,0,0,0,0,0,0,-4.563,-4.5632,-4.5649,-4.5653,-4.5771,-4.5772,-4.5948,-4.595,0,0,0,0,0,0,0,0,0,0,0,-4.5629,-4.5631,-4.5633,-4.5653,-4.5771,-4.5772,-4.5948,-4.5849,0,0,0,0,0,0,0,0,0,0,-4.573,-4.5727,-4.5631,-4.5633,-4.5654,-4.5771,-4.5772,-4.5844,-4.5856,-4.5906,0,-4.5954,0,-4.5955,-4.5964,-4.5965,0,0,0,-4.5642,-4.5718,-4.5735,-4.5634,-4.5655,-4.5771,-4.5715,-4.585,-4.5863,-4.5921,-4.5957,-4.5962,-4.5958,-4.5965,-4.5966,-4.6292,-4.6294,0,0,-4.5635,-4.566,-4.5727,-4.5744,-4.5728,-4.5711,-4.5719,-4.5858,-4.5898,-4.5957,-4.5966,-4.5961,-4.5967,-4.5968,-4.629,-4.6293,0,0,0,-4.5624,-4.5656,-4.567,-4.5738,-4.5757,-4.5715,-4.5723,-4.5892,-4.5895,-4.5968,-4.5963,-4.5968,-4.597,-4.6288,-4.6291,-4.6418,0,0,0,-4.5619,-4.5649,-4.5667,-4.5684,-4.5755,-4.5826,-4.5755,-4.5885,-4.59,-4.5962,-4.5968,-4.5972,-4.6286,-4.629,-4.6409,-4.6474,0,0,0,-4.5617,-4.5649,-4.5671,-4.5685,-4.5737,-4.5823,-4.5834,-4.5888,-4.5898,-4.5965,-4.5973,-4.6284,-4.6289,-4.6402,-4.6462,-4.6568,0,0,0,-4.5622,-4.5782,-4.5673,-4.585,-4.5736,-4.59,-4.5832,-4.5954,-4.6026,-4.5969,-4.6286,-4.6291,-4.64,-4.6454,-4.656,-4.6663,-4.6708,0,0,-4.5838,-4.5809,-4.5911,-4.5817,-4.6007,-4.588,-4.6089,-4.6132,-4.6115,-4.6234,-4.6242,-4.6412,-4.6461,-4.6566,-4.6947,-4.6983,0,0,0,-4.5988,-4.6062,-4.6107,-4.6177,-4.6213,-4.6249,-4.6257,-4.6272,-4.6372,-4.6181,-4.6477,-4.6506,-4.6567,-4.6615,-4.6645,-4.6696,-4.6314,-4.6313,-4.6313,-4.6332,-4.6301,-4.6468,-4.6451,-4.652,-4.6525,-4.6578,-4.66,-4.655,-4.662,-4.6656,-4.6891,-4.6948,-4.6971,-4.7024,-4.6706,-4.6707,-4.6707,-4.6708,-4.6646,-4.6747,-4.6674,-4.681,-4.6777,-4.6891,-4.6902,-4.6862,-4.6963,-4.6861,-4.6913,-4.6806,-4.7011,-4.7056,-4.6717,-4.6715,-4.6714,-4.6713,-4.6713,-4.687,-4.6912,-4.6927,-4.7024,-4.7102,-4.7079,-4.718,-4.7145,-4.7113,-4.7165,-4.7199,-4.7197,-4.7192,-4.7183,-4.7184,-4.7185,-4.7185,-4.7186,-4.7186,-4.7096,-4.7109,-4.7198,-4.7248,-4.7287,-4.7335,-4.7341,-4.7379,-4.7413,-4.738,-4.738,-4.7323,-4.7036,-4.6965,-4.7199,-4.7197,-4.7195,-4.7194,-4.7193,-4.743,-4.7348,-4.7486,-4.7526,-4.7581,-4.7661,-4.7614,-4.7695,-4.7721,-4.7772,-4.7703,-4.7495,-4.7463,-4.7439,-4.7381,-4.7708,-4.7708,-4.7708,-4.7708,-4.762,-4.7599,-4.7731,-4.7797,-4.7857,-4.7829,-4.7985,-4.799,-4.7983,-4.7998,-4.7944,-4.7863,-4.784,-4.7822,-4.7789,-4.7734,-4.8144,-4.8145,-4.8145,-4.7824,-4.7807,-4.7948,-4.7939,-4.7979,-4.8015,-4.816,-4.8239,-4.8213,-4.8162,-4.8008,-4.799,-4.7858,-4.7816,-4.7765,-4.7715,-4.7613,0,0]}]]